sat.trackr.live / text

‹ back to catalog

UNKNOWN

NORAD 81864

UNKNOWN UNKNOWN UNKNOWN

§ Identity

Operator
Country
Launch date
Launch site
Launch vehicle
Mass (kg)
RCS (m²)

External: N2YO · Heavens-Above

§ Orbital elements

Epoch: 2026-05-21T11:33:31.338144Z

Period
108.03 min
Inclination
65.6731°
Eccentricity
0.0771781
Mean motion
13.32941731 rev/d
Perigee alt
555.8 km
Apogee alt
1,715.6 km
Semi-major
7,513.8 km
B*
2.0558e-4
RAAN
53.2416°
Arg perigee
304.4311°
Mean anomaly
48.6080°
Rev number
57,212

§ Raw data

UNKNOWN1 81864U          26141.48161271  .00000475  00000+0  20558-3 0  99992 81864  65.6731  53.2416 0771781 304.4311  48.6080 13.32941731572122

JSON: /api/v1/satellites/81864 · /tle

For live sub-satellite position, see the globe view (requires WebGL).

§ Visibility from observer

Set your observer location to see the next 7 days of passes ≥ 10°. The values pass through the URL so the page stays shareable.

No JS? Fill the form by hand. The geolocation button needs JavaScript.